Weather History for K65S - August, 2014

Change the Weather History Date:

Thursday, August 14, 2014

  Actual Average (KSZT) Record (KSZT)
Temperature  
Mean Temperature 65 °F -  
Max Temperature 71 °F 81 °F 97 °F (1933)
Min Temperature 59 °F 49 °F 35 °F (1931)
Growing Degree Days 15 (Base 50)    
Moisture  
Dew Point 59 °F    
Average Humidity 84    
Maximum Humidity 100    
Minimum Humidity 73    
Precipitation  
Precipitation 0.49 in - - ()
Sea Level Pressure  
Sea Level Pressure 30.01 in    
Wind  
Wind Speed 3 mph (North)    
Max Wind Speed 9 mph    
Max Gust Speed -    
Visibility 9 miles    
Events Rain    
Averages and records for this station are not official NWS values.
T = Trace of Precipitation, MM = Missing Value Source: NWS Daily Summary

Daily Weather History Graph

Daily Weather History Graph

Search for Another Location

Airport or City:

Trip Planner

Search our weather history database for the weather conditions in past years. The results will help you decide how hot, cold, wet, or windy it might be!

Date:

Astronomy

Aug. 14, 2014 Rise Set
Actual Time 5:36 AM PDT 8:01 PM PDT
Civil Twilight 5:01 AM PDT 8:36 PM PDT
Nautical Twilight 4:17 AM PDT 9:20 PM PDT
Astronomical Twilight 3:26 AM PDT 10:10 PM PDT
Moon 9:58 PM PDT (8/14) 10:46 AM PDT (8/14)
Length of Visible Light 15h 34m
Length of Day
14h 24m
Waning Gibbous, 78% of the Moon is Illuminated
Aug 14
Waning Gibbous
Aug 17
Last Quarter
Aug 25
New
Sep 2
First Quarter
Sep 8
Full

Hourly Weather History & Observations

Time (PDT) Temp. Dew Point Humidity Pressure Visibility Wind Dir Wind Speed Gust Speed Precip Events Conditions
12:15 AM 66.2 °F 57.2 °F 73% 29.95 in 10.0 mi East 3.5 mph - N/A   Overcast
12:35 AM 66.2 °F 57.2 °F 73% 29.95 in 10.0 mi ESE 3.5 mph - N/A   Overcast
12:55 AM 66.2 °F 57.2 °F 73% 29.95 in 10.0 mi Calm Calm - N/A   Overcast
1:15 AM 66.2 °F 57.2 °F 73% 29.94 in 10.0 mi Calm Calm - N/A   Mostly Cloudy
1:35 AM 66.2 °F 57.2 °F 73% 29.95 in 10.0 mi ESE 3.5 mph - N/A   Mostly Cloudy
1:55 AM 64.4 °F 57.2 °F 77% 29.95 in 10.0 mi ESE 4.6 mph - N/A   Overcast
2:15 AM 64.4 °F 57.2 °F 77% 29.95 in 10.0 mi Calm Calm - N/A   Overcast
2:35 AM 64.4 °F 57.2 °F 77% 29.95 in 10.0 mi Calm Calm - N/A   Overcast
2:55 AM 64.4 °F 57.2 °F 77% 29.96 in 10.0 mi SE 5.8 mph - N/A   Overcast
3:15 AM 64.4 °F 57.2 °F 77% 29.96 in 10.0 mi ESE 3.5 mph - N/A   Overcast
3:35 AM 64.4 °F 57.2 °F 77% 29.96 in 10.0 mi East 4.6 mph - N/A   Overcast
3:55 AM 64.4 °F 57.2 °F 77% 29.96 in 10.0 mi Calm Calm - N/A   Overcast
4:15 AM 64.4 °F 57.2 °F 77% 29.96 in 10.0 mi Calm Calm - N/A   Overcast
4:35 AM 64.4 °F 57.2 °F 77% 29.96 in 10.0 mi ESE 3.5 mph - N/A   Overcast
4:55 AM 64.4 °F 57.2 °F 77% 29.97 in 10.0 mi East 4.6 mph - N/A   Overcast
5:15 AM 64.4 °F 57.2 °F 77% 29.97 in 10.0 mi ESE 3.5 mph - N/A   Overcast
5:35 AM 62.6 °F 57.2 °F 82% 29.97 in 10.0 mi Calm Calm - N/A   Overcast
5:55 AM 62.6 °F 57.2 °F 82% 29.97 in 10.0 mi Calm Calm - N/A   Overcast
6:15 AM 62.6 °F 57.2 °F 82% 29.98 in 10.0 mi Calm Calm - N/A   Mostly Cloudy
6:35 AM 62.6 °F 57.2 °F 82% 29.98 in 10.0 mi Calm Calm - N/A   Mostly Cloudy
6:55 AM 60.8 °F 59.0 °F 94% 29.98 in 7.0 mi Calm Calm - 0.03 in Rain Light Rain
7:15 AM 60.8 °F 59.0 °F 94% 29.99 in 10.0 mi Calm Calm - N/A   Overcast
7:35 AM 60.8 °F 59.0 °F 94% 30.00 in 10.0 mi Calm Calm - N/A   Overcast
7:55 AM 62.6 °F 59.0 °F 88% 29.99 in 10.0 mi Calm Calm - 0.01 in   Scattered Clouds
8:15 AM 62.6 °F 60.8 °F 94% 30.00 in 10.0 mi Calm Calm - N/A   Clear
8:35 AM 62.6 °F 60.8 °F 94% 30.01 in 10.0 mi Calm Calm - N/A   Mostly Cloudy
8:55 AM 64.4 °F 59.0 °F 83% 30.01 in 10.0 mi Calm Calm - N/A   Scattered Clouds
9:35 AM 64.4 °F 59.0 °F 83% 30.03 in 10.0 mi East 6.9 mph - N/A   Mostly Cloudy
9:55 AM 62.6 °F 59.0 °F 88% 30.04 in 10.0 mi ESE 3.5 mph - N/A   Overcast
10:15 AM 62.6 °F 59.0 °F 88% 30.05 in 4.0 mi Calm Calm - 0.04 in Rain Rain
10:35 AM 62.6 °F 59.0 °F 88% 30.05 in 9.0 mi Calm Calm - 0.06 in   Partly Cloudy
10:55 AM 62.6 °F 59.0 °F 88% 30.05 in 8.0 mi Calm Calm - 0.06 in   Scattered Clouds
11:15 AM 60.8 °F 59.0 °F 94% 30.06 in 5.0 mi Calm Calm - 0.01 in   Mostly Cloudy
11:35 AM 60.8 °F 59.0 °F 94% 30.06 in 3.0 mi East 4.6 mph - 0.10 in Rain Rain
11:55 AM 60.8 °F 59.0 °F 94% 30.06 in 3.0 mi ENE 5.8 mph - 0.18 in Rain Light Rain
12:15 PM 59.0 °F 59.0 °F 100% 30.06 in 3.0 mi ENE 3.5 mph - 0.05 in Rain Rain
12:35 PM 60.8 °F 59.0 °F 94% 30.06 in 3.0 mi North 3.5 mph - 0.12 in Rain Rain
12:55 PM 62.6 °F 60.8 °F 94% 30.06 in 2.0 mi Calm Calm - 0.20 in Rain Light Rain
1:15 PM 62.6 °F 62.6 °F 100% 30.06 in 9.0 mi Calm Calm - 0.01 in   Mostly Cloudy
1:35 PM 62.6 °F 62.6 °F 100% 30.06 in 9.0 mi Calm Calm - 0.01 in   Mostly Cloudy
1:55 PM 64.4 °F 62.6 °F 94% 30.06 in 10.0 mi West 3.5 mph - 0.01 in   Mostly Cloudy
2:15 PM 64.4 °F 60.8 °F 88% 30.06 in 10.0 mi Calm Calm - N/A   Mostly Cloudy
2:35 PM 66.2 °F 62.6 °F 88% 30.05 in 10.0 mi NW 4.6 mph - N/A   Mostly Cloudy
2:55 PM 68.0 °F 62.6 °F 83% 30.05 in 10.0 mi NW 4.6 mph - N/A   Mostly Cloudy
3:15 PM 68.0 °F 60.8 °F 78% 30.04 in 10.0 mi WNW 5.8 mph - N/A   Mostly Cloudy
3:35 PM 69.8 °F 60.8 °F 73% 30.03 in 10.0 mi NW 6.9 mph - N/A   Mostly Cloudy
3:55 PM 69.8 °F 60.8 °F 73% 30.03 in 10.0 mi NNW 5.8 mph - N/A   Partly Cloudy
4:15 PM 68.0 °F 60.8 °F 78% 30.03 in 10.0 mi NW 6.9 mph - N/A   Clear
4:35 PM 71.6 °F 62.6 °F 73% 30.02 in 10.0 mi NNW 5.8 mph - N/A   Partly Cloudy
4:55 PM 71.6 °F 62.6 °F 73% 30.01 in 10.0 mi NW 9.2 mph - N/A   Scattered Clouds
5:15 PM 69.8 °F 62.6 °F 78% 30.01 in 10.0 mi NW 6.9 mph - N/A   Scattered Clouds
5:35 PM 69.8 °F 62.6 °F 78% 30.00 in 10.0 mi NW 8.1 mph - N/A   Clear
5:55 PM 69.8 °F 62.6 °F 78% 30.00 in 10.0 mi NNW 6.9 mph - N/A   Clear
6:15 PM 69.8 °F 62.6 °F 78% 29.99 in 10.0 mi NNW 8.1 mph - N/A   Clear
6:35 PM 68.0 °F 62.6 °F 83% 29.99 in 10.0 mi NNW 9.2 mph - N/A   Clear
6:55 PM 68.0 °F 60.8 °F 78% 30.00 in 10.0 mi NNW 8.1 mph - N/A   Clear
7:15 PM 66.2 °F 60.8 °F 83% 30.00 in 10.0 mi NNW 6.9 mph - N/A   Clear
7:35 PM 66.2 °F 60.8 °F 83% 30.00 in 10.0 mi NNW 6.9 mph - N/A   Clear
7:55 PM 64.4 °F 60.8 °F 88% 30.01 in 10.0 mi NNW 4.6 mph - N/A   Clear
8:15 PM 64.4 °F 60.8 °F 88% 30.00 in 10.0 mi NNW 8.1 mph - N/A   Clear
8:35 PM 64.4 °F 59.0 °F 83% 30.01 in 10.0 mi NNW 6.9 mph - N/A   Clear
8:55 PM 64.4 °F 59.0 °F 83% 30.01 in 10.0 mi NNW 6.9 mph - N/A   Clear
9:15 PM 62.6 °F 59.0 °F 88% 30.01 in 10.0 mi NNW 5.8 mph - N/A   Clear
9:35 PM 62.6 °F 59.0 °F 88% 30.02 in 10.0 mi North 5.8 mph - N/A   Clear
9:55 PM 62.6 °F 59.0 °F 88% 30.02 in 10.0 mi NNW 4.6 mph - N/A   Mostly Cloudy
10:15 PM 60.8 °F 59.0 °F 94% 30.01 in 10.0 mi North 4.6 mph - N/A   Partly Cloudy
10:35 PM 60.8 °F 59.0 °F 94% 30.01 in 10.0 mi NNW 4.6 mph - N/A   Clear
10:55 PM 60.8 °F 59.0 °F 94% 30.02 in 10.0 mi NW 5.8 mph - N/A   Scattered Clouds
11:15 PM 62.6 °F 59.0 °F 88% 30.02 in 10.0 mi North 6.9 mph - N/A   Overcast
11:35 PM 62.6 °F 59.0 °F 88% 30.02 in 10.0 mi NNW 4.6 mph - N/A   Overcast
11:55 PM 62.6 °F 59.0 °F 88% 30.02 in 10.0 mi Calm Calm - N/A   Overcast